[[{"header":{"parameterUnit":"m.s-1","parameterCategory":1,"la1":30.2991,"la2":30.254,"lo1":-89.0895,"lo2":-89.0444,"dy":0.0017,"dx":0.0017,"nx":28,"ny":28,"refTime":"2023-04-17T15:00:00:Z","depth":0,"parameterNumber":2,"parameterNumberName":"U-component_of_WINDS"},"data":[0,0,0,0,0,0,0,0,0,0,0,0,0,0,0,0,0,0,0,0,0,0,0,0,0,0,0,0,0,0,0,0,0,0,0,0,0,0,0,0,0,0,0,0,0,0,0,0,0,0,0,0,0,0,0,0,0,0,1.6317,1.6319,0,1.6451,1.6452,1.6454,1.6435,1.6433,1.6431,1.6429,1.6572,1.6578,1.6584,0,0,0,0,0,0,0,0,0,0,0,0,0,1.6053,1.6058,1.6317,1.6319,1.632,1.6451,1.6453,1.6454,1.6436,1.6433,1.643,1.6428,1.657,1.6577,1.6584,0,0,0,0,0,0,0,0,0,0,0,0,0,1.6176,1.606,1.6317,1.6327,1.6329,1.645,1.6453,1.6455,1.6436,1.6433,1.643,1.6427,1.6568,1.6577,1.6585,1.6707,0,0,1.6612,1.6616,0,0,0,0,0,0,0,0,1.6169,1.6185,1.6324,1.6326,1.6329,1.6423,1.6412,1.654,1.6437,1.6396,1.6429,1.6425,1.6526,1.6538,1.6571,1.6714,1.672,1.6613,1.6619,1.6622,1.6625,0,0,0,0,0,0,0,1.616,1.618,1.637,1.6326,1.6329,1.6327,1.6341,1.6436,1.6478,1.6399,1.6398,1.6414,1.6527,1.6562,1.6574,1.6722,1.6613,1.6621,1.6626,1.663,1.6975,1.6979,0,0,0,0,0,0,1.6148,1.6173,1.6366,1.6374,1.6239,1.6334,1.635,1.6396,1.6477,1.6486,1.6417,1.6413,1.6549,1.6563,1.6579,1.6728,1.6622,1.6631,1.6636,1.6972,1.6976,1.698,0,0,0,0,0,0,1.6143,1.6166,1.6361,1.6273,1.6298,1.6343,1.6395,1.6401,1.6436,1.649,1.6498,1.6445,1.6547,1.6566,1.6676,1.6733,1.6635,1.6643,1.6967,1.6973,1.6978,1.7028,0,0,0,0,0,0,1.6135,1.6164,1.6208,1.6274,1.6302,1.6453,1.6398,1.6406,1.6451,1.6446,1.6519,1.6527,1.6545,1.6662,1.6684,1.6744,1.665,1.6962,1.697,1.6976,1.7021,1.7034,1.7046,0,0,0,0,0,1.6126,1.6218,1.6211,1.6234,1.6359,1.6456,1.6473,1.649,1.6455,1.6502,1.6537,1.6525,1.6723,1.6674,1.6698,1.6761,1.6959,1.6968,1.6976,1.7016,1.7032,1.7046,0,0,0,0,0,0,1.616,1.6227,1.622,1.6335,1.639,1.6453,1.6512,1.6506,1.6573,1.6567,1.6587,1.6604,1.6715,1.6749,1.6693,1.6885,1.6836,1.685,1.6858,1.6874,1.6886,1.6876,1.6657,0,0,0,0,0,1.618,1.6251,1.6307,1.6404,1.6432,1.6467,1.651,1.6519,1.6577,1.6601,1.6644,1.6703,1.6779,1.6828,1.6901,1.7026,1.7043,1.7081,1.7094,1.7103,1.7116,1.7187,1.7205,1.7009,1.7009,1.7009,0,0,1.6225,1.627,1.6314,1.6412,1.6455,1.6531,1.6487,1.6568,1.6626,1.6614,1.6719,1.6753,1.6821,1.6939,1.6993,1.6971,1.7174,1.7115,1.7122,1.7129,1.7198,1.7216,1.7233,1.7015,1.7014,1.7013,0,0,1.6344,1.6384,1.647,1.6514,1.658,1.6603,1.6624,1.6688,1.671,1.6816,1.6809,1.6879,1.7008,1.7057,1.7099,1.7238,1.723,1.7261,1.7326,1.7395,1.7411,1.7425,1.7476,1.7494,1.7273,1.7273,1.7273,0,1.6391,1.6502,1.6516,1.6598,1.6643,1.6634,1.6723,1.6766,1.6853,1.6885,1.6858,1.7021,1.7066,1.7197,1.7231,1.7264,1.7291,1.7254,1.7407,1.7421,1.7434,1.7484,1.7503,1.7277,1.7276,1.7276,1.7276,0,1.6558,1.6635,1.6697,1.678,1.6831,1.6917,1.6946,1.6997,1.7002,1.7029,1.7138,1.7192,1.7276,1.7307,1.7313,1.744,1.7424,1.7402,1.7354,1.7456,1.7503,1.7522,1.7282,1.728,1.7279,1.7279,0,0,1.6702,1.6791,1.6814,1.6852,1.6924,1.6986,1.7072,1.7153,1.7197,1.7258,1.7333,1.7443,1.7423,1.7471,1.7482,1.7542,1.7652,1.7513,1.7515,1.7539,1.7798,1.7815,1.7836,1.7647,1.7651,1.7653,1.7793,0,1.6829,1.6979,1.6995,1.713,1.7203,1.7197,1.7272,1.7327,1.7355,1.7423,1.7455,1.7533,1.75,1.753,1.7589,1.7626,1.7705,1.7616,1.7719,1.7723,1.7703,1.7861,1.7878,1.8007,1.7811,1.7814,1.7816,0,1.6997,1.7061,1.7203,1.7267,1.7298,1.7366,1.7442,1.7506,1.7569,1.7585,1.7639,1.7643,1.7735,1.7682,1.7811,1.7751,1.7794,1.7819,1.7824,1.7836,1.7776,1.7878,1.8048,1.8068,1.7845,1.7843,1.7841,0,1.709,1.7212,1.7313,1.7346,1.7422,1.747,1.7505,1.7564,1.7612,1.7679,1.7711,1.7789,1.7832,1.7893,1.7919,1.7878,1.8047,1.7997,1.8066,1.8065,1.8102,1.81,1.8284,1.8128,1.8128,1.8127,1.8127,0,1.7231,1.7319,1.7356,1.7418,1.7517,1.7536,1.7634,1.7667,1.772,1.7791,1.779,1.7857,1.7887,1.7959,1.798,1.8085,1.8104,1.8122,1.8127,1.8123,1.8121,1.8152,1.8144,1.8133,1.8131,1.813,1.813,0,1.7351,1.738,1.749,1.7553,1.7571,1.7642,1.7697,1.7759,1.7786,1.7876,1.7899,1.7943,1.8028,1.8059,1.8164,1.8178,1.83,1.8297,1.8278,1.828,1.8348,1.8341,1.8559,1.859,1.8413,1.8414,1.8416,0,1.744,1.7507,1.7578,1.7624,1.766,1.7735,1.7783,1.7805,1.7857,1.7934,1.7987,1.8071,1.814,1.8277,1.832,1.8401,1.8401,1.8472,1.8413,1.8407,1.8404,1.84,1.8408,1.8483,1.8485,1.8486,1.8487,0,1.7595,1.7606,1.7675,1.775,1.7807,1.7868,1.7926,1.7965,1.7996,1.8055,1.8141,1.8194,1.83,1.8385,1.8468,1.8507,1.8504,1.8505,1.8526,1.8523,1.851,1.852,1.8309,1.85,1.8499,1.8498,1.8497,1.8497,1.7703,1.7763,1.7823,1.79,1.7946,1.8002,1.8063,1.8098,1.817,1.8257,1.8266,1.836,1.8423,1.8533,1.8576,1.8651,1.8632,1.8661,1.8669,1.8676,1.8682,1.8497,1.8666,1.8666,1.8665,1.8665,1.8665,0,1.786,1.7897,1.7968,1.805,1.8112,1.8101,1.8166,1.822,1.8301,1.8359,1.8427,1.8528,1.861,1.866,1.8743,1.8794,1.8795,1.8816,1.8813,1.8823,1.8693,1.8668,1.8814,1.8814,1.8814,1.8814,1.8814,1.8814,1.7948,1.805,1.8068,1.8194,1.8232,1.8321,1.836,1.8412,1.8459,1.857,1.8638,1.8669,1.8725,1.8813,1.889,1.8902,1.8934,1.8956,1.8968,1.8847,1.8831,1.8817,1.8793,1.8963,1.8963,1.9091,1.9092,1.9093]},{"header":{"parameterUnit":"m.s-1","parameterCategory":1,"la1":30.2991,"la2":30.254,"lo1":-89.0895,"lo2":-89.0444,"dy":0.0017,"dx":0.0017,"nx":28,"ny":28,"refTime":"2023-04-17T15:00:00:Z","depth":0,"parameterNumber":3,"parameterNumberName":"V-component_of_WINDS"},"data":[0,0,0,0,0,0,0,0,0,0,0,0,0,0,0,0,0,0,0,0,0,0,0,0,0,0,0,0,0,0,0,0,0,0,0,0,0,0,0,0,0,0,0,0,0,0,0,0,0,0,0,0,0,0,0,0,0,0,0.1032,0.1032,0,0.1064,0.1064,0.1065,0.1007,0.1005,0.1003,0.1001,0.1033,0.1036,0.1038,0,0,0,0,0,0,0,0,0,0,0,0,0,0.0919,0.0922,0.1032,0.1032,0.1033,0.1064,0.1064,0.1065,0.1007,0.1005,0.1003,0.1,0.1032,0.1035,0.1038,0,0,0,0,0,0,0,0,0,0,0,0,0,0.0962,0.0923,0.1032,0.1008,0.1006,0.1064,0.1064,0.1065,0.1008,0.1005,0.1002,0.0999,0.1031,0.1035,0.1039,0.1121,0,0,0.1051,0.1053,0,0,0,0,0,0,0,0,0.0959,0.0966,0.1011,0.101,0.1008,0.1028,0.1036,0.1084,0.1008,0.1007,0.1001,0.0998,0.1034,0.1037,0.105,0.1123,0.1124,0.1051,0.1054,0.1055,0.1057,0,0,0,0,0,0,0,0.0956,0.0964,0.1044,0.1012,0.101,0.0995,0.0998,0.1045,0.1036,0.1007,0.1003,0.1007,0.1032,0.1046,0.105,0.1125,0.1051,0.1055,0.1057,0.1059,0.1266,0.1269,0,0,0,0,0,0,0.0957,0.0962,0.1043,0.1045,0.0976,0.0999,0.1002,0.1025,0.1036,0.1034,0.101,0.1005,0.1041,0.1045,0.1051,0.1148,0.1055,0.1059,0.1061,0.1263,0.1267,0.127,0,0,0,0,0,0,0.0954,0.0964,0.1042,0.1003,0.1011,0.1004,0.103,0.1027,0.104,0.1038,0.1036,0.1026,0.1039,0.1045,0.1104,0.1148,0.1061,0.1065,0.1259,0.1264,0.1269,0.1343,0,0,0,0,0,0,0.0951,0.0964,0.0996,0.1004,0.1014,0.1096,0.1033,0.103,0.1048,0.1041,0.1052,0.1051,0.1037,0.1099,0.1108,0.1152,0.1068,0.1256,0.1262,0.1267,0.1337,0.135,0.1361,0,0,0,0,0,0.0948,0.1015,0.0998,0.1008,0.1053,0.1098,0.1104,0.1087,0.1051,0.1083,0.1081,0.1051,0.1142,0.1105,0.1115,0.1161,0.1253,0.126,0.1267,0.1332,0.1348,0.1361,0,0,0,0,0,0,0.1012,0.1016,0.0996,0.1069,0.1084,0.1089,0.1128,0.1104,0.1129,0.1122,0.1099,0.1102,0.1165,0.1169,0.1128,0.1241,0.1191,0.1201,0.1237,0.1252,0.1264,0.1262,0.1071,0,0,0,0,0,0.1035,0.1072,0.1073,0.1137,0.1145,0.1136,0.1154,0.114,0.1154,0.116,0.1162,0.1177,0.1209,0.1231,0.126,0.1337,0.1338,0.1373,0.1386,0.1396,0.1404,0.1445,0.1461,0.1294,0.1293,0.1293,0,0,0.1083,0.1089,0.1114,0.115,0.116,0.1198,0.1141,0.1184,0.1212,0.1166,0.1222,0.1225,0.1239,0.1308,0.1338,0.1313,0.1451,0.1405,0.1413,0.1416,0.1454,0.147,0.1484,0.1298,0.1297,0.1297,0,0,0.1189,0.1197,0.1251,0.1262,0.1278,0.1271,0.1284,0.1292,0.1292,0.1348,0.1314,0.1347,0.1402,0.1414,0.1428,0.1538,0.1511,0.1548,0.1612,0.1652,0.1665,0.1676,0.1716,0.173,0.1556,0.1556,0.1556,0,0.1246,0.1303,0.1282,0.1328,0.1344,0.1305,0.1359,0.137,0.1395,0.1407,0.1378,0.1447,0.1454,0.1525,0.1552,0.1563,0.1577,0.1547,0.1665,0.1676,0.1687,0.1724,0.1739,0.1561,0.156,0.156,0.1559,0,0.1372,0.1412,0.1453,0.1478,0.15,0.1549,0.1536,0.156,0.1543,0.1539,0.1596,0.1603,0.1632,0.1648,0.1632,0.1716,0.17,0.1669,0.1618,0.1707,0.1742,0.1756,0.1567,0.1565,0.1564,0.1563,0,0,0.1521,0.1533,0.1549,0.156,0.1574,0.1604,0.1651,0.1681,0.1702,0.172,0.1759,0.1806,0.1777,0.1792,0.1777,0.1812,0.1899,0.1776,0.1776,0.1799,0.1992,0.2017,0.2034,0.188,0.1883,0.1885,0.1991,0,0.1627,0.1709,0.1692,0.1773,0.1809,0.1772,0.1813,0.1826,0.1823,0.1853,0.1849,0.1883,0.1842,0.185,0.1883,0.1881,0.1937,0.1873,0.1916,0.1918,0.1915,0.2052,0.2078,0.2178,0.2005,0.2007,0.2009,0,0.1762,0.1785,0.187,0.1878,0.1892,0.193,0.1955,0.1984,0.1998,0.1993,0.201,0.1987,0.2034,0.1982,0.2045,0.2002,0.2018,0.202,0.2023,0.2027,0.197,0.206,0.221,0.2225,0.203,0.2028,0.2027,0,0.1863,0.1915,0.1972,0.1983,0.1993,0.202,0.2026,0.2036,0.2055,0.2077,0.2089,0.2115,0.213,0.2151,0.2136,0.21,0.2203,0.2149,0.22,0.2201,0.2224,0.2223,0.2379,0.2234,0.2233,0.2233,0.2233,0,0.1983,0.2037,0.2018,0.2054,0.2112,0.2091,0.2149,0.215,0.216,0.2194,0.2162,0.2195,0.2173,0.2204,0.2192,0.2247,0.2254,0.2251,0.2248,0.2255,0.2255,0.2266,0.2259,0.2237,0.2236,0.2235,0.2235,0,0.2107,0.2096,0.2157,0.2161,0.2164,0.2207,0.221,0.2243,0.2237,0.2281,0.229,0.2281,0.2316,0.2303,0.234,0.2332,0.2402,0.2388,0.2398,0.2395,0.2446,0.2442,0.2615,0.2637,0.2477,0.2478,0.248,0,0.2185,0.2225,0.2234,0.2256,0.2264,0.2298,0.2317,0.2297,0.2318,0.2336,0.2366,0.2398,0.2423,0.248,0.2476,0.2504,0.2492,0.2551,0.2496,0.2502,0.2493,0.2492,0.2496,0.2562,0.2564,0.2565,0.2567,0,0.2325,0.2318,0.2347,0.2374,0.2398,0.2418,0.2435,0.2454,0.2435,0.246,0.2495,0.2514,0.2552,0.2584,0.2609,0.2613,0.2587,0.2584,0.2597,0.2605,0.2609,0.2608,0.2428,0.258,0.2579,0.2578,0.2577,0.2576,0.2429,0.2463,0.2475,0.2508,0.2519,0.2536,0.2567,0.2565,0.2594,0.2623,0.2609,0.265,0.2662,0.2692,0.27,0.2732,0.2709,0.2728,0.2733,0.2738,0.2745,0.2603,0.2736,0.2736,0.2735,0.2735,0.2735,0,0.2568,0.2574,0.2604,0.263,0.2656,0.2628,0.2646,0.2669,0.2706,0.2719,0.2744,0.2784,0.2815,0.2813,0.2841,0.2867,0.2855,0.2875,0.2873,0.2875,0.2764,0.275,0.2883,0.2883,0.2883,0.2883,0.2883,0.2883,0.2644,0.27,0.2694,0.2755,0.276,0.28,0.2813,0.2828,0.2838,0.2885,0.291,0.2909,0.2916,0.2944,0.2971,0.297,0.2982,0.3006,0.3,0.2897,0.2882,0.2868,0.2855,0.3009,0.3009,0.3108,0.3109,0.311]}]]